Orbital Elements at Epoch 2459200.5 (2020-Dec-17.0) TDB
Reference: JPL 34 (heliocentric ecliptic J2000)
Element | Value | Uncertainty (1-sigma) | Units |
e | .07524763221330877 | 3.9243e-08 | |
a | 3.172665777411649 | 1.8161e-08 | au |
q | 2.933930189857226 | 1.294e-07 | au |
i | 16.36248750819552 | 5.497e-06 | deg |
node | 20.4463375806112 | 1.1644e-05 | deg |
peri | 118.8275357077229 | 3.6232e-05 | deg |
M | 284.4936781826274 | 3.427e-05 | deg |
tp | 2459633.428051612053 (2022-Feb-22.92805161) | 0.00019751 | TDB |
period | 2064.119862139543 5.65 | 1.7723e-05 4.852e-08 | d yr |
n | .1744084762727129 | 1.4976e-09 | deg/d |
Q | 3.411401364966072 | 1.9528e-08 | au |
|
| | Orbit Determination Parameters
Additional Information
|